Island Lake, Manitoba

12:38 PM CDT on September 20, 2017 (GMT -0500)
Island Lake

Weather History for CYIV - May, 2013

Change the Weather History Date:

Thursday, May 30, 2013

  Actual Average Record
Temperature  
Mean Temperature 52 °F -  
Max Temperature 60 °F 65 °F 75 °F (2014)
Min Temperature 44 °F 47 °F 28 °F (2015)
Degree Days  
Heating Degree Days 13    
Growing Degree Days 2 (Base 50)    
Moisture  
Dew Point 41 °F    
Average Humidity 68    
Maximum Humidity 93    
Minimum Humidity 38    
Precipitation  
Precipitation 0.00 in 0.09 in - ()
Sea Level Pressure  
Sea Level Pressure 30.02 in    
Wind  
Wind Speed 6 mph ()    
Max Wind Speed 14 mph    
Max Gust Speed 22 mph    
Visibility 15.0 miles    
Events      
Averages and records for this station are not official NWS values.
T = Trace of Precipitation, MM = Missing Value Source: Averaged Metar Reports

Daily Weather History Graph

Daily Weather History Graph

Search for Another Location

Airport or City:

Trip Planner

Search our weather history database for the weather conditions in past years. The results will help you decide how hot, cold, wet, or windy it might be!

Date:

Astronomy

May. 30, 2013 Rise Set
Actual Time 4:55 AM CDT 9:37 PM CDT
Civil Twilight 4:05 AM CDT 10:27 PM CDT
Nautical Twilight 2:44 AM CDT 11:50 PM CDT
Astronomical Twilight Sun does not set Sun does not set
Moon 1:04 AM CDT (5/30) 11:43 AM CDT (5/30)
Length of Visible Light 18h 22m
Length of Day
16h 41m
Waning Gibbous, 62% of the Moon is Illuminated
May 30
Waning Gibbous
May 31
Last Quarter
Jun 8
New
Jun 16
First Quarter
Jun 23
Full

Hourly Weather History & Observations

Time (CDT) Temp. Windchill Dew Point Humidity Pressure Visibility Wind Dir Wind Speed Gust Speed Precip Events Conditions
12:00 AM 46.4 °F 43.5 °F 44.6 °F 93% 29.97 in 15.0 mi East 5.8 mph - N/A   Mostly Cloudy
1:00 AM 45 °F - 43 °F 88% 29.99 in 15 mi ENE 5.8 mph - -   Mostly Cloudy
1:00 AM 44.6 °F 41.4 °F 42.8 °F 93% 29.99 in 15.0 mi ENE 5.8 mph - N/A   Mostly Cloudy
1:24 AM - - - N/A% - 15.0 mi ENE 6.9 mph - N/A   Mostly Cloudy
2:00 AM 44.6 °F 41.4 °F 42.8 °F 93% 29.99 in 15.0 mi ENE 5.8 mph - N/A   Mostly Cloudy
3:00 AM 44.6 °F 43.1 °F 42.8 °F 93% 30.00 in 15.0 mi East 3.5 mph - N/A   Mostly Cloudy
4:00 AM 44.6 °F 41.4 °F 42.8 °F 93% 30.01 in 15.0 mi East 5.8 mph - N/A   Mostly Cloudy
5:00 AM 44.6 °F 43.1 °F 41.0 °F 87% 30.02 in 15.0 mi ESE 3.5 mph - N/A   Mostly Cloudy
6:00 AM 44.6 °F 43.1 °F 42.8 °F 93% 30.02 in 15.0 mi East 3.5 mph - N/A   Partly Cloudy
7:00 AM 47 °F - 43 °F 81% 30.02 in 15 mi East 4.6 mph - -   Scattered Clouds
7:00 AM 46.4 °F 44.3 °F 42.8 °F 87% 30.02 in 15.0 mi East 4.6 mph - N/A   Partly Cloudy
8:00 AM 46.4 °F 44.3 °F 42.8 °F 87% 30.02 in 15.0 mi East 4.6 mph - N/A   Mostly Cloudy
9:00 AM 50.0 °F - 41.0 °F 71% 30.03 in 15.0 mi East 9.2 mph - N/A   Partly Cloudy
10:00 AM 51.8 °F - 42.8 °F 71% 30.04 in 15.0 mi ENE 9.2 mph - N/A   Partly Cloudy
11:00 AM 53.6 °F - 39.2 °F 58% 30.04 in 15.0 mi ENE 11.5 mph 17.3 mph N/A   Partly Cloudy
12:00 PM 55.4 °F - 39.2 °F 54% 30.04 in 15.0 mi ENE 9.2 mph - N/A   Mostly Cloudy
1:00 PM 57 °F - 39 °F 40% 30.03 in 15 mi ENE 11.5 mph - -   Clear
1:00 PM 57.2 °F - 39.2 °F 51% 30.03 in 15.0 mi ENE 9.2 mph 18.4 mph N/A   Mostly Cloudy
2:00 PM 57.2 °F - 39.2 °F 51% 30.03 in 15.0 mi East 13.8 mph - N/A   Mostly Cloudy
3:00 PM 60.8 °F - 41.0 °F 48% 30.02 in 15.0 mi ENE 12.7 mph 19.6 mph N/A   Overcast
4:00 PM 60.8 °F - 41.0 °F 48% 30.01 in 15.0 mi East 10.4 mph 18.4 mph N/A   Overcast
5:00 PM 59.0 °F - 39.2 °F 48% 30.02 in 15.0 mi East 12.7 mph 21.9 mph N/A   Overcast
6:00 PM 59.0 °F - 41.0 °F 51% 30.02 in 15.0 mi East 9.2 mph - N/A   Overcast
7:00 PM 59 °F - 40 °F 38% 30.02 in 15 mi ENE 10.4 mph - -   Overcast
7:00 PM 59.0 °F - 41.0 °F 51% 30.02 in 15.0 mi ENE 11.5 mph 17.3 mph N/A   Overcast
8:00 PM 57.2 °F - 41.0 °F 55% 30.03 in 15.0 mi ENE 8.1 mph - N/A   Mostly Cloudy
9:00 PM 55.4 °F - 41.0 °F 58% 30.02 in 15.0 mi ENE 6.9 mph - N/A   Mostly Cloudy
10:00 PM 53.6 °F - 41.0 °F 62% 30.03 in 15.0 mi East 8.1 mph - N/A   Mostly Cloudy
11:00 PM 51.8 °F - 41.0 °F 67% 30.04 in 15.0 mi ENE 9.2 mph - N/A   Mostly Cloudy